Location: B
(0.0000°N, 0.0000°E)
Time: 05:20:25
(UTC+02:00)

Daily predictions for brighter satellites

Satellite Brightness Start Highest point End
(mag) Time Altitude Azimuth Time Altitude Azimuth Time Altitude Azimuth
SL-16 R/B 4.4 04:57:32 22° NNE 04:57:32 22° NNE 04:59:46 10° N
Atlas Centaur 2 3.5 05:10:19 57° E 05:10:19 57° E 05:17:06 10° ENE
USA 215 3.9 05:09:20 10° NE 05:14:16 51° ENE 05:14:16 51° ENE
Cosmos 2016 Rocket 4.3 05:36:40 64° ESE 05:36:51 64° E 05:43:07 10° NNE
Palapa 6 Rocket 4.4 05:43:00 44° E 05:43:00 44° E 05:46:19 10° ESE
Okean-O 4.5 05:37:10 10° NNE 05:39:14 27° NNE 05:39:14 27° NNE
Cosmos 1302 Rocket 4.5 05:48:51 56° NE 05:48:51 56° NE 05:53:00 10° NNE
Cosmos 2285 Rocket 4.1 05:49:24 61° SSE 05:50:15 69° ESE 05:56:28 10° NNE
Cosmos 1802 Rocket 4.2 06:01:01 52° NW 06:01:01 52° NW 06:06:01 10° N
ARIANE 44L R/B 3.1 06:02:33 66° N 06:02:39 66° N 06:15:15 10° E
ARIANE 5 R/B 3.0 06:05:25 40° N 06:05:46 41° NNE 06:15:22 10° E
CZ-3C R/B 3.5 05:32:31 10° W 06:07:45 37° SSW 06:12:30 10° SSE
USA 234 4.0 06:01:02 10° SSE 06:04:48 34° S 06:04:48 34° S
Milstar 3 Cent rocket 3.8 06:04:33 39° SSW 06:08:04 59° SE 06:24:35 10° ENE
Timation 1 Rocket 4.5 06:08:54 55° WNW 06:08:54 55° WNW 06:14:30 10° N
ARIANE 5 R/B 2.9 06:11:21 23° ESE 06:11:21 23° ESE 06:13:26 10° ESE
Delta 198 4.1 06:13:41 42° E 06:13:41 42° E 06:16:18 10° ENE
Cosmos 1602 Rocket 4.5 06:09:01 10° NNE 06:13:10 46° E 06:17:06 12° SSE
Thor Agena Rocket 3.5 06:14:46 12° SSE 06:19:40 88° W 06:24:53 10° NNW
ARIANE 5 R/B 3.4 06:22:16 26° ESE 06:22:16 26° ESE 06:23:13 10° ESE
Cosmos 2369 Rocket 3.3 06:18:39 13° S 06:23:25 42° ESE 06:28:45 10° NE
ADEOS II 2.0 06:18:58 10° N 06:24:09 66° WNW 06:25:30 48° SW
GPS 2-14 Rocket1 2.5 06:26:39 76° SE 06:26:39 76° SE 06:30:24 10° ENE
Delta 202 3.7 06:26:59 43° WSW 06:29:06 79° SSE 06:34:26 10° ENE
Meteor 1-31 Rocket 2.7 06:25:30 10° NNE 06:29:26 85° ESE 06:30:29 48° S
Cosmos 1626 Rocket 3.4 06:28:32 10° N 06:32:56 88° W 06:37:04 12° S
GPS 2-12 Rocket1 3.4 06:39:32 41° WSW 06:40:35 48° SSW 06:45:15 10° SE
Cosmos 2084 3.7 06:43:02 40° W 06:43:34 42° WNW 06:47:18 10° N
Cosmos 1606 Rocket 3.5 06:41:29 28° SSW 06:43:44 64° W 06:48:08 10° N
Meteor 2-17 Rocket 4.4 06:42:10 10° S 06:48:17 86° E 06:54:24 10° N
H-2A ROCKET BODY -0.1 06:48:42 72° NNE 06:48:44 73° NNE 06:51:22 10° ESE
CZ-4 R/B 4.3 06:46:18 10° ENE 06:48:54 16° ESE 06:51:31 10° SE
CZ-4B R/B 4.0 06:47:08 10° N 06:50:37 43° W 06:51:42 33° WSW
Cosmos 614 Rocket 3.9 06:48:40 10° NNW 06:53:40 58° WSW 06:58:39 10° S
SJ-6F 4.4 06:49:46 10° N 06:53:56 83° WNW 06:58:04 10° SSW
Cosmos 2228 3.5 06:53:05 10° S 06:57:24 64° E 07:01:45 10° NNE
COSMOS 2487 4.1 06:55:10 10° NW 06:56:42 19° WNW 06:56:42 19° WNW
Tsikada Rocket 4.2 06:52:10 10° N 06:58:19 74° E 07:04:35 10° S
Atlas Centaur 2 3.8 06:52:58 18° W 06:58:46 41° NNW 07:06:07 10° NE
CENTAUR R/B 3.1 06:50:27 10° NNW 06:58:47 89° WSW 07:06:50 10° SSE
CSL-04 Rocket 3.7 06:56:14 10° NNE 07:01:45 88° WNW 07:07:19 10° SSW
FALCON 9 R/B 1.9 06:59:55 20° WNW 07:02:06 54° SSW 07:10:08 10° SE
Cosmos 1346 Rocket 2.7 07:02:54 10° N 07:06:54 74° W 07:10:50 10° S
Delta 2 Rocket 3.7 07:02:55 10° WNW 07:07:22 61° SW 07:12:29 10° SE
BREEZE-M DEB (TANK) 4.5 06:50:03 10° NW 07:11:02 76° NE 07:15:44 10° SE
ATLAS 5 CENTAUR R/B 4.3 07:07:05 10° N 07:12:55 36° ENE 07:18:47 10° SE
Cosmos 2082 Rocket 3.3 07:08:41 10° N 07:14:09 49° ENE 07:19:35 10° SSE
Ariane Rocket 3.7 07:11:08 10° NNW 07:15:42 35° WNW 07:20:17 10° SW
ADEOS Rocket 4.0 07:12:34 10° NNW 07:17:15 26° W 07:22:17 10° SW
Cosmos 1743 4.4 07:17:32 14° WSW 07:18:24 15° W 07:20:36 10° NW
IRS-1A Rocket 4.2 07:15:10 10° N 07:20:41 78° WNW 07:26:20 10° SSW
Cosmos 1943 Rocket 2.8 07:18:05 10° S 07:23:29 56° ESE 07:28:50 10° NNE
BLOCK DM-SL R/B 3.5 07:19:16 10° W 07:24:28 83° N 07:31:21 10° E
Cosmos 2058 Rocket 4.1 07:23:42 10° SW 07:27:23 26° W 07:31:03 10° NNW
Palapa 6 Rocket 4.2 07:25:23 10° W 07:29:53 28° SSW 07:33:44 10° SE
Cosmos 1666 3.6 07:26:38 10° SSW 07:30:02 30° W 07:33:27 10° NNW
Cosmos 1066 Rocket 4.3 07:30:32 10° NNW 07:35:42 48° W 07:40:50 10° SSW
MOS 1 Rocket 4.4 07:36:22 10° NNW 07:41:10 33° WNW 07:45:54 10° SW
BLOCK DM-SL R/B 4.1 01:35:02 10° W 08:27:06 89° N 08:32:26 10° E
